Tracking 17925 objects as of 22-January-2017
HD Live streaming from Space Station
objects crossing your sky now

SL-16 DEB

Track SL-16 DEB now!
10-day predictions


NORAD ID: 28354
Int'l Code: 2004-021C
Perigee: 850.3 km
Apogee: 1,175.9 km
Inclination: 71.0 °
Period: 105.2 minutes
Semi major axis: 7384 km
RCS: 0.0814 m2 (small)
Launch date: June 10, 2004
Source: Commonwealth of Independent States (former USSR) (CIS)
Launch site: TYURATAM MISSILE AND SPACE COMPLEX (TTMTR)

Note: This is SATELLITE DEBRIS
Your satellite tracking list
Your tracking list is empty





NASA's NSSDC Master Catalog

Two Line Element Set (TLE):
1 28354U 04021C   17020.30888679  .00000066  00000-0  10585-3 0  9992
2 28354  70.9576 359.1895 0220493 124.1200 238.1031 13.68218738629538
Source of the keplerian elements: AFSPC